Starlink 34149

operational
NORAD ID: 64140 Int'l Des: 2025-111 Owner: SPXS Country: US Constellation: starlink
LEOCIRCULAR

关于 Starlink 34149

正在加载描述...

实时位置

正在加载3D地球...

即将过境

高度历史

Altitude vs Time

uPlot chart will show altitude changes over time

两行轨道根数

1 64140U 25111T 25307.62323545 .00046479 00000-0 16850-2 0 9994
2 64140 42.9975 69.7823 0001076 285.1671 74.9062 15.27636735 26182
Epoch: Nov 3, 2025 • Age: 12 hours

当前状态

高度 483.9 km
速度 7.62 km/s
星下点 -9.64°S, 38.98°W
发射日期 May 24, 2025
运行时间 0.4 years
类型 internet

技术详情

分类 Payload
质量 575.00 kg
干质量 530.00 kg
总质量 575.00 kg
长度 0.30 m
直径 4.10 m
跨度 29.00 m
形状 Box + pan
制造商 SPXS
平台类型 Starlink V2MO
阶段状态 In Orbit
所有者/国家 SPXS/US

大型星座

Loading constellations...